sat.trackr.live / text

‹ back to catalog

TYCHE

NORAD 60496 · 2024-149AE

PAYLOAD ACTIVE UNKNOWN

§ Identity

Operator
Country
UK
Launch date
2024-08-16
Launch site
AFWTR
Launch vehicle
Mass (kg)
RCS (m²)

External: N2YO · Heavens-Above · Gunter

§ Orbital elements

Epoch: 2026-09-22T17:13:50.917152Z

Period
94.38 min
Inclination
97.3684°
Eccentricity
0.0000898
Mean motion
15.25821714 rev/d
Perigee alt
487.7 km
Apogee alt
488.9 km
Semi-major
6,866.5 km
B*
1.1304e-4
RAAN
342.1734°
Arg perigee
12.5531°
Mean anomaly
347.5730°
Rev number
11,677

§ Raw data

TYCHE1 60496U 24149AE  26265.71795043  .00002819  00000+0  11304-3 0  99932 60496  97.3684 342.1734 0000898  12.5531 347.5730 15.25821714116777

JSON: /api/v1/satellites/60496 · /tle

For live sub-satellite position, see the globe view (requires WebGL).

§ Visibility from observer

Set your observer location to see the next 7 days of passes ≥ 10°. The values pass through the URL so the page stays shareable.

No JS? Fill the form by hand. The geolocation button needs JavaScript.

§ Radio — SatNOGS DB

ModeDescriptionDownlinkUplink
FM Mode S - Transmitter 2.230 GHz
FM Mode X - Transmitter 8.200 GHz

2 transmitters · refreshed weekly from db.satnogs.org